Warsaw, IN

3:32 AM EDT on June 26, 2017 (GMT -0400)
Warsaw Municipal

Weather History for KASW - January, 2014

Change the Weather History Date:

Saturday, January 4, 2014

  Actual Average Record
Temperature  
Mean Temperature 23 °F -  
Max Temperature 32 °F 36 °F 58 °F (1950)
Min Temperature 14 °F 18 °F -8 °F (1979)
Degree Days  
Heating Degree Days 42    
Moisture  
Dew Point 16 °F    
Average Humidity 65    
Maximum Humidity 73    
Minimum Humidity 51    
Precipitation  
Precipitation 0.00 in - - ()
Sea Level Pressure  
Sea Level Pressure 29.98 in    
Wind  
Wind Speed 9 mph (SSW)    
Max Wind Speed 16 mph    
Max Gust Speed 26 mph    
Visibility 10 miles    
Events      
Averages and records for this station are not official NWS values.
T = Trace of Precipitation, MM = Missing Value Source: NWS Daily Summary

Daily Weather History Graph

Daily Weather History Graph

Search for Another Location

Airport or City:

Trip Planner

Search our weather history database for the weather conditions in past years. The results will help you decide how hot, cold, wet, or windy it might be!

Date:

Astronomy

Jan. 04, 2014 Rise Set
Actual Time 8:09 AM EST 5:27 PM EST
Civil Twilight 7:38 AM EST 5:58 PM EST
Nautical Twilight 7:03 AM EST 6:33 PM EST
Astronomical Twilight 6:30 AM EST 7:06 PM EST
Moon 10:11 AM EST (1/4) 9:49 PM EST (1/4)
Length of Visible Light 10h 20m
Length of Day
9h 18m
Waxing Crescent, 15% of the Moon is Illuminated
Jan 4
Waxing Crescent
Jan 7
First Quarter
Jan 15
Full
Jan 24
Last Quarter
Jan 30
New

Hourly Weather History & Observations

Time (EST) Temp. Windchill Dew Point Humidity Pressure Visibility Wind Dir Wind Speed Gust Speed Precip Events Conditions
12:15 AM 14.0 °F 1.2 °F 6.8 °F 73% 30.08 in 10.0 mi South 10.4 mph 18.4 mph N/A   Clear
12:35 AM 14.0 °F 1.2 °F 6.8 °F 73% 30.07 in 10.0 mi South 10.4 mph 16.1 mph N/A   Clear
12:55 AM 15.8 °F 3.4 °F 6.8 °F 68% 30.06 in 10.0 mi South 10.4 mph 18.4 mph N/A   Clear
1:15 AM 14.0 °F 0.5 °F 6.8 °F 73% 30.05 in 10.0 mi South 11.5 mph 19.6 mph N/A   Clear
1:35 AM 14.0 °F 1.2 °F 6.8 °F 73% 30.05 in 10.0 mi South 10.4 mph 17.3 mph N/A   Clear
1:55 AM 15.8 °F 6.1 °F 6.8 °F 68% 30.04 in 10.0 mi South 6.9 mph 18.4 mph N/A   Clear
2:15 AM 15.8 °F 4.2 °F 8.6 °F 73% 30.04 in 10.0 mi South 9.2 mph 17.3 mph N/A   Clear
2:35 AM 15.8 °F 2.7 °F 8.6 °F 73% 30.03 in 10.0 mi SSW 11.5 mph 16.1 mph N/A   Clear
2:55 AM 15.8 °F 4.2 °F 8.6 °F 73% 30.03 in 10.0 mi South 9.2 mph 16.1 mph N/A   Clear
3:15 AM 15.8 °F 4.2 °F 8.6 °F 73% 30.03 in 10.0 mi South 9.2 mph 16.1 mph N/A   Clear
3:35 AM 15.8 °F 2.7 °F 8.6 °F 73% 30.02 in 10.0 mi South 11.5 mph 18.4 mph N/A   Clear
3:55 AM 15.8 °F 2.1 °F 8.6 °F 73% 30.01 in 10.0 mi South 12.7 mph 18.4 mph N/A   Clear
4:15 AM 17.6 °F 6.4 °F 8.6 °F 68% 30.00 in 10.0 mi SSW 9.2 mph 17.3 mph N/A   Clear
4:35 AM 17.6 °F 5.7 °F 8.6 °F 68% 29.99 in 10.0 mi South 10.4 mph 18.4 mph N/A   Clear
4:55 AM 17.6 °F 7.3 °F 8.6 °F 68% 29.99 in 10.0 mi South 8.1 mph 18.4 mph N/A   Clear
5:15 AM 17.6 °F 7.3 °F 8.6 °F 68% 29.98 in 10.0 mi South 8.1 mph - N/A   Clear
5:35 AM 17.6 °F 6.4 °F 8.6 °F 68% 29.98 in 10.0 mi South 9.2 mph - N/A   Clear
5:55 AM 19.4 °F 11.5 °F 8.6 °F 63% 29.97 in 10.0 mi South 5.8 mph - N/A   Clear
6:15 AM 19.4 °F 9.5 °F 8.6 °F 63% 29.97 in 10.0 mi SSW 8.1 mph - N/A   Clear
6:35 AM 21.2 °F 8.9 °F 8.6 °F 58% 29.96 in 10.0 mi South 12.7 mph 16.1 mph N/A   Clear
6:55 AM 21.2 °F 8.9 °F 8.6 °F 58% 29.96 in 10.0 mi SSW 12.7 mph 16.1 mph N/A   Clear
7:15 AM 21.2 °F 11.7 °F 8.6 °F 58% 29.95 in 10.0 mi SSW 8.1 mph 19.6 mph N/A   Clear
7:35 AM 21.2 °F 10.9 °F 8.6 °F 58% 29.94 in 10.0 mi SSW 9.2 mph 21.9 mph N/A   Clear
7:55 AM 21.2 °F 10.1 °F 10.4 °F 63% 29.94 in 10.0 mi SSW 10.4 mph 18.4 mph N/A   Clear
8:15 AM 23.0 °F 12.4 °F 10.4 °F 59% 29.95 in 10.0 mi SSW 10.4 mph 17.3 mph N/A   Clear
8:35 AM 23.0 °F 14.7 °F 10.4 °F 59% 29.95 in 10.0 mi SSW 6.9 mph 19.6 mph N/A   Clear
8:55 AM 23.0 °F 12.4 °F 10.4 °F 59% 29.94 in 10.0 mi SSW 10.4 mph 16.1 mph N/A   Clear
9:15 AM 23.0 °F 13.1 °F 10.4 °F 59% 29.95 in 10.0 mi SSW 9.2 mph 20.7 mph N/A   Clear
9:35 AM 23.0 °F 11.7 °F 12.2 °F 63% 29.95 in 10.0 mi SSW 11.5 mph 19.6 mph N/A   Clear
9:55 AM 24.8 °F 15.3 °F 12.2 °F 59% 29.96 in 10.0 mi SSW 9.2 mph 18.4 mph N/A   Clear
10:15 AM 26.6 °F 17.5 °F 12.2 °F 55% 29.96 in 10.0 mi SSW 9.2 mph 20.7 mph N/A   Clear
10:35 AM 26.6 °F 16.8 °F 12.2 °F 55% 29.97 in 10.0 mi SSW 10.4 mph 19.6 mph N/A   Clear
10:55 AM 28.4 °F 22.2 °F 14.0 °F 55% 29.98 in 10.0 mi SW 5.8 mph 19.6 mph N/A   Clear
11:15 AM 30.2 °F 21.3 °F 14.0 °F 51% 29.98 in 10.0 mi SW 10.4 mph 16.1 mph N/A   Clear
11:35 AM 30.2 °F 20.8 °F 15.8 °F 55% 29.97 in 10.0 mi SW 11.5 mph 16.1 mph N/A   Clear
11:55 AM 30.2 °F 20.2 °F 15.8 °F 55% 29.96 in 10.0 mi SW 12.7 mph 23.0 mph N/A   Clear
12:15 PM 30.2 °F 20.8 °F 17.6 °F 60% 29.95 in 10.0 mi SW 11.5 mph 18.4 mph N/A   Clear
12:35 PM 30.2 °F 20.8 °F 17.6 °F 60% 29.94 in 10.0 mi SW 11.5 mph 18.4 mph N/A   Clear
12:55 PM 30.2 °F 21.9 °F 17.6 °F 60% 29.93 in 10.0 mi SW 9.2 mph 16.1 mph N/A   Clear
1:15 PM 32.0 °F 23.0 °F 19.4 °F 60% 29.93 in 10.0 mi SW 11.5 mph 19.6 mph N/A   Clear
1:35 PM 32.0 °F 22.1 °F 19.4 °F 60% 29.92 in 10.0 mi SW 13.8 mph 25.3 mph N/A   Clear
1:55 PM 32.0 °F 22.5 °F 19.4 °F 60% 29.92 in 10.0 mi SW 12.7 mph 21.9 mph N/A   Clear
2:15 PM 32.0 °F 21.6 °F 19.4 °F 60% 29.93 in 10.0 mi WSW 15.0 mph 26.5 mph N/A   Clear
2:35 PM 32.0 °F 22.5 °F 19.4 °F 60% 29.92 in 10.0 mi WSW 12.7 mph 20.7 mph N/A   Clear
2:55 PM 32.0 °F 21.6 °F 19.4 °F 60% 29.92 in 10.0 mi SW 15.0 mph 23.0 mph N/A   Clear
3:15 PM 32.0 °F 23.0 °F 19.4 °F 60% 29.93 in 10.0 mi SW 11.5 mph 20.7 mph N/A   Clear
3:35 PM 32.0 °F 21.2 °F 19.4 °F 60% 29.93 in 10.0 mi SW 16.1 mph 20.7 mph N/A   Scattered Clouds
3:55 PM 32.0 °F 23.0 °F 21.2 °F 64% 29.94 in 10.0 mi SW 11.5 mph 17.3 mph N/A   Mostly Cloudy
4:15 PM 32.0 °F 26.4 °F 21.2 °F 64% 29.95 in 10.0 mi SW 5.8 mph - N/A   Overcast
4:35 PM 32.0 °F 26.4 °F 21.2 °F 64% 29.95 in 10.0 mi SW 5.8 mph - N/A   Overcast
4:55 PM 32.0 °F 26.4 °F 21.2 °F 64% 29.95 in 10.0 mi SW 5.8 mph - N/A   Overcast
5:15 PM 32.0 °F 27.5 °F 21.2 °F 64% 29.95 in 10.0 mi SSW 4.6 mph - N/A   Overcast
5:35 PM 32.0 °F 26.4 °F 21.2 °F 64% 29.96 in 10.0 mi SW 5.8 mph - N/A   Overcast
5:55 PM 32.0 °F 27.5 °F 21.2 °F 64% 29.96 in 10.0 mi SW 4.6 mph - N/A   Overcast
6:15 PM 32.0 °F 27.5 °F 21.2 °F 64% 29.97 in 10.0 mi SW 4.6 mph - N/A   Overcast
6:35 PM 32.0 °F 27.5 °F 23.0 °F 69% 29.98 in 10.0 mi SW 4.6 mph - N/A   Overcast
6:55 PM 32.0 °F 27.5 °F 23.0 °F 69% 29.98 in 10.0 mi SW 4.6 mph - N/A   Overcast
7:15 PM 32.0 °F 28.7 °F 23.0 °F 69% 29.98 in 10.0 mi SW 3.5 mph - N/A   Overcast
7:35 PM 32.0 °F 28.7 °F 23.0 °F 69% 29.99 in 10.0 mi SSW 3.5 mph - N/A   Overcast
7:55 PM 32.0 °F - 23.0 °F 69% 29.99 in 10.0 mi Calm Calm - N/A   Overcast
8:15 PM 32.0 °F - 23.0 °F 69% 29.99 in 10.0 mi Calm Calm - N/A   Overcast
8:35 PM 32.0 °F 27.5 °F 23.0 °F 69% 29.99 in 10.0 mi SSW 4.6 mph - N/A   Overcast
8:55 PM 32.0 °F - 23.0 °F 69% 29.99 in 10.0 mi Calm Calm - N/A   Overcast
9:15 PM 32.0 °F - 23.0 °F 69% 29.99 in 10.0 mi Calm Calm - N/A   Overcast
9:35 PM 32.0 °F - 23.0 °F 69% 29.99 in 10.0 mi Calm Calm - N/A   Overcast
9:55 PM 32.0 °F 27.5 °F 23.0 °F 69% 29.99 in 10.0 mi SSW 4.6 mph - N/A   Overcast
10:15 PM 32.0 °F 26.4 °F 23.0 °F 69% 29.99 in 10.0 mi SSW 5.8 mph - N/A   Overcast
10:35 PM 32.0 °F 28.7 °F 23.0 °F 69% 29.99 in 10.0 mi SSW 3.5 mph - N/A   Overcast
10:55 PM 32.0 °F 28.7 °F 23.0 °F 69% 29.99 in 10.0 mi SSW 3.5 mph - N/A   Overcast
11:15 PM 32.0 °F - 23.0 °F 69% 29.99 in 10.0 mi Calm Calm - N/A   Overcast
11:35 PM 32.0 °F - 23.0 °F 69% 29.99 in 10.0 mi Calm Calm - N/A   Overcast
11:55 PM 32.0 °F - 23.0 °F 69% 29.99 in 10.0 mi Calm Calm - N/A   Overcast